星链-5877 (STARLINK-5877 )

导读

STARLINK-5877是美国太空探索技术公司SpaceX星链星座的组成卫星,于2023年4月27日发射入轨。星链计划旨在构建全球卫星互联网星座,为全球提供宽带互联网接入服务,这颗卫星补充了星链星座的在轨规模,进一步推动星链星座组网建设,增强了星座的覆盖与服务能力,同时也引发了太空轨道资源争夺、天文观测干扰等争议讨论。

Basic Information
目录编号:
56354
目录名称:
STARLINK-5877
国际标识:
2023-058AP
轨道中心:
EARTH
卫星名称:
星链-5877
卫星全名:
星链-5877 (STARLINK-5877 )
卫星状态:
在轨 (已飞行1145 天)
发射日期:
2023-04-27 UTC
国别 :
美国 (US)
星等 :
--
Orbit Information
数据来源 国际轨道数据 AOE轨道数据
星历时间 2026-06-15T01:25:55+0800
8小时前
查看轨道信息
2026-06-14T17:00:00+0800
17小时前
查看轨道信息
半长轴 6927.62km 6927.639km
偏心率 0.0001392 0.0001726
轨道倾角 97.359° 97.371°
近地点辐角 88.475° 83.216°
升交点赤经 165.898° 165.569°
平近点角 271.664° 173.839°
近地点 548.518km 548.306km
远地点 550.448km 550.698km
周期 95.639分钟 95.640分钟
每日圈数 15.056594 15.056533
Detailed Information
固有亮度:
5
最大亮度:
2.5
卫星平台:
Starlink v1.5
覆盖范围:
全球
运营商:
太空探索技术公司
运营商所在国:
美国
制造商(研发单位):
太空探索技术公司
制造商所在国:
美国
使用方式:
暂无
Satellite Introduction
星链(Starlink)计划是由太空探索技术公司(SpaceX)提出的一个巨型低轨卫星互联网星座项目,计划在2019年至2024年间在太空搭建由约1.2万颗卫星组成的“星链”网络,其中1584颗将部署在地球上空550千米处的近地轨道,并从2020年开始工作。该卫星仍在工作。
2D Orbit Map
3D Orbit Map
Orbit Altitude Analysis Chart
Orbit Inclination Analysis Chart
Orbit Comprehensive Analysis Chart
View Comprehensive Chart